Location: Unspecified
(48.2082°N, 0.0000°E)
Time: 13:05:49
(UTC+00:00)

Vanguard 1 - Pass Details

Date: 04 July 2019
Orbit: 653 x 3830 km, 34.3° (Epoch: 22 July)

Event Time Altitude Azimuth Distance (km) Brightness Sun altitude
Rises 20:02:24 0° 182° (S) 7,162 14.1 -0.7°
Reaches altitude 10° 20:09:37 10° 166° (SSE) 6,566 13.8 -1.7°
Maximum altitude 20:22:09 18° 131° (SE) 6,200 13.5 -3.3°
Drops below altitude 10° 20:34:50 10° 97° (E) 6,770 13.8 -4.9°
Sets 20:42:16 0° 82° (E) 7,473 14.2 -5.8°
